• In Hungary
  • List of Countries
  • For 7 days
  • Water Temperature
  • Satellite Maps
  • Weather Map
  • News
  • Weather Widgets
  • user-avatar
    Login

    Hourly Weather Spicyno

    Today, 16 November, Friday

    Time Temperature Precipitation Wind Pressure Humidity
    00:00 -5°C° 0 mm 2 mps 767 mmHg 31%
    01:00 -5°C° 0 mm 2 mps 767 mmHg 31%
    02:00 -5°C° 0 mm 2 mps 767 mmHg 31%
    03:00 -5°C° 0 mm 2 mps 767 mmHg 31%
    04:00 -5°C° 0 mm 2 mps 768 mmHg 31%
    05:00 -6°C° 0 mm 3 mps 768 mmHg 30%
    06:00 -6°C° 0 mm 3 mps 768 mmHg 30%
    07:00 -6°C° 0 mm 3 mps 768 mmHg 28%
    08:00 -6°C° 0 mm 3 mps 768 mmHg 27%
    09:00 -6°C° 0 mm 3 mps 769 mmHg 26%
    10:00 -4°C° 0 mm 3 mps 769 mmHg 23%
    11:00 -2°C° 0 mm 3 mps 769 mmHg 21%
    12:00 -1°C° 0 mm 3 mps 769 mmHg 18%
    13:00 -1°C° 0 mm 3 mps 769 mmHg 19%
    14:00 -1°C° 0 mm 3 mps 769 mmHg 20%
    15:00 -1°C° 0 mm 3 mps 769 mmHg 21%
    16:00 -2°C° 0 mm 3 mps 769 mmHg 22%
    17:00 -2°C° 0 mm 3 mps 769 mmHg 24%
    18:00 -4°C° 0 mm 3 mps 769 mmHg 25%
    19:00 -4°C° 0 mm 3 mps 769 mmHg 25%
    20:00 -4°C° 0 mm 2 mps 769 mmHg 25%
    21:00 -4°C° 0 mm 2 mps 769 mmHg 25%
    22:00 -4°C° 0 mm 2 mps 769 mmHg 25%
    23:00 -4°C° 0 mm 2 mps 769 mmHg 25%

    Tomorrow, 17 November, Saturday

    Time Temperature Precipitation Wind Pressure Humidity
    00:00 -4°C° 0 mm 2 mps 768 mmHg 24%
    01:00 -4°C° 0 mm 2 mps 768 mmHg 24%
    02:00 -4°C° 0 mm 2 mps 768 mmHg 24%
    03:00 -2°C° 0 mm 1 mps 768 mmHg 24%
    04:00 -2°C° 0 mm 1 mps 768 mmHg 24%
    05:00 -3°C° 0 mm 1 mps 767 mmHg 24%
    06:00 -3°C° 0 mm 1 mps 767 mmHg 23%
    07:00 -2°C° 0 mm 1 mps 767 mmHg 23%
    08:00 -2°C° 0 mm 1 mps 767 mmHg 22%
    09:00 -2°C° 0 mm 1 mps 767 mmHg 21%
    10:00 -1°C° 0 mm 1 mps 766 mmHg 20%
    11:00 -1°C° 0 mm 0 mps 766 mmHg 18%
    12:00 +1°C° 0 mm 0 mps 765 mmHg 17%
    13:00 +2°C° 0 mm 1 mps 765 mmHg 18%
    14:00 +1°C° 0 mm 1 mps 764 mmHg 20%
    15:00 +1°C° 0 mm 1 mps 763 mmHg 21%
    16:00 +1°C° 0 mm 1 mps 763 mmHg 22%
    17:00 -2°C° 0 mm 2 mps 762 mmHg 22%
    18:00 -3°C° 0 mm 2 mps 762 mmHg 23%
    19:00 -3°C° 0 mm 2 mps 761 mmHg 23%
    20:00 -3°C° 0 mm 2 mps 760 mmHg 23%
    21:00 -3°C° 0 mm 2 mps 760 mmHg 23%
    22:00 -3°C° 0 mm 2 mps 759 mmHg 23%
    23:00 -4°C° 0 mm 3 mps 758 mmHg 23%

    Day after tomorrow, 18 November, Sunday

    Time Temperature Precipitation Wind Pressure Humidity
    00:00 -4°C° 0 mm 3 mps 758 mmHg 23%
    01:00 -5°C° 0 mm 3 mps 757 mmHg 23%
    02:00 -5°C° 0 mm 3 mps 757 mmHg 24%
    03:00 -5°C° 0 mm 3 mps 756 mmHg 24%
    04:00 -5°C° 0 mm 3 mps 755 mmHg 24%
    05:00 -5°C° 0 mm 3 mps 755 mmHg 24%
    06:00 -5°C° 0 mm 3 mps 754 mmHg 24%
    07:00 -5°C° 0 mm 3 mps 754 mmHg 24%
    08:00 -5°C° 0 mm 3 mps 753 mmHg 23%
    09:00 -5°C° 0 mm 3 mps 753 mmHg 23%
    10:00 -4°C° 0 mm 3 mps 753 mmHg 22%
    11:00 -2°C° 0 mm 3 mps 753 mmHg 20%
    12:00 -2°C° 0 mm 4 mps 753 mmHg 19%
    13:00 -1°C° 0 mm 3 mps 752 mmHg 20%
    14:00 -1°C° 0 mm 3 mps 752 mmHg 21%
    15:00 -1°C° 0 mm 3 mps 752 mmHg 22%
    16:00 -2°C° 0 mm 3 mps 752 mmHg 25%
    17:00 -2°C° 0 mm 3 mps 752 mmHg 27%
    18:00 -4°C° 0 mm 3 mps 752 mmHg 30%
    19:00 -3°C° 0 mm 2 mps 753 mmHg 31%
    20:00 -4°C° 0 mm 2 mps 753 mmHg 32%
    21:00 -4°C° 0 mm 2 mps 753 mmHg 33%
    22:00 -4°C° 0 mm 2 mps 753 mmHg 35%
    23:00 -4°C° 0 mm 2 mps 753 mmHg 36%

    19 November, Monday

    Time Temperature Precipitation Wind Pressure Humidity
    00:00 -4°C° 0 mm 2 mps 754 mmHg 38%
    01:00 -4°C° 0 mm 2 mps 754 mmHg 39%
    02:00 -4°C° 0 mm 2 mps 754 mmHg 40%
    03:00 -5°C° 0 mm 2 mps 755 mmHg 42%
    04:00 -5°C° 0 mm 2 mps 755 mmHg 43%
    05:00 -5°C° 0 mm 2 mps 755 mmHg 44%
    06:00 -5°C° 0 mm 2 mps 755 mmHg 45%
    07:00 -5°C° 0 mm 2 mps 756 mmHg 45%
    08:00 -5°C° 0 mm 2 mps 756 mmHg 46%
    09:00 -4°C° 0 mm 2 mps 757 mmHg 46%
    10:00 -3°C° 0 mm 2 mps 757 mmHg 43%
    11:00 -2°C° 0 mm 2 mps 758 mmHg 40%
    12:00 -1°C° 0 mm 2 mps 758 mmHg 38%
    13:00 -1°C° 0 mm 2 mps 759 mmHg 38%
    14:00 -1°C° 0 mm 2 mps 759 mmHg 39%
    15:00 -1°C° 0 mm 2 mps 759 mmHg 40%
    16:00 -2°C° 0 mm 2 mps 760 mmHg 42%
    17:00 -2°C° 0 mm 2 mps 760 mmHg 44%
    18:00 -3°C° 0 mm 2 mps 760 mmHg 47%
    19:00 -3°C° 0 mm 2 mps 760 mmHg 47%
    20:00 -3°C° 0 mm 2 mps 761 mmHg 47%
    21:00 -3°C° 0 mm 2 mps 761 mmHg 47%
    22:00 -3°C° 0 mm 2 mps 761 mmHg 46%
    23:00 -3°C° 0 mm 2 mps 761 mmHg 46%

    20 November, Tuesday

    Time Temperature Precipitation Wind Pressure Humidity
    00:00 -4°C° 0 mm 2 mps 762 mmHg 46%
    01:00 -4°C° 0 mm 2 mps 762 mmHg 45%
    02:00 -4°C° 0 mm 2 mps 762 mmHg 45%
    03:00 -4°C° 0 mm 2 mps 762 mmHg 45%
    04:00 -4°C° 0 mm 2 mps 762 mmHg 44%
    05:00 -4°C° 0 mm 2 mps 762 mmHg 43%
    06:00 -4°C° 0 mm 2 mps 762 mmHg 43%
    07:00 -4°C° 0 mm 2 mps 762 mmHg 41%
    08:00 -3°C° 0 mm 2 mps 762 mmHg 40%
    09:00 -3°C° 0 mm 2 mps 762 mmHg 39%
    10:00 -3°C° 0 mm 2 mps 762 mmHg 37%
    11:00 -2°C° 0 mm 2 mps 762 mmHg 35%
    12:00 -1°C° 0 mm 2 mps 762 mmHg 33%
    13:00 -1°C° 0 mm 2 mps 762 mmHg 33%
    14:00 -1°C° 0 mm 2 mps 762 mmHg 33%
    15:00 -1°C° 0 mm 2 mps 761 mmHg 34%
    16:00 -2°C° 0 mm 2 mps 761 mmHg 34%
    17:00 -2°C° 0 mm 2 mps 761 mmHg 35%
    18:00 -3°C° 0 mm 2 mps 761 mmHg 36%
    19:00 -3°C° 0 mm 2 mps 761 mmHg 35%
    20:00 -3°C° 0 mm 2 mps 761 mmHg 34%
    21:00 -3°C° 0 mm 2 mps 761 mmHg 34%
    22:00 -3°C° 0 mm 2 mps 760 mmHg 34%
    23:00 -3°C° 0 mm 2 mps 760 mmHg 34%

    21 November, Wednesday

    Time Temperature Precipitation Wind Pressure Humidity
    00:00 -3°C° 0 mm 2 mps 760 mmHg 34%
    01:00 -4°C° 0 mm 2 mps 760 mmHg 34%
    02:00 -4°C° 0 mm 2 mps 760 mmHg 35%
    03:00 -4°C° 0 mm 2 mps 760 mmHg 36%
    04:00 -4°C° 0 mm 2 mps 759 mmHg 37%
    05:00 -4°C° 0 mm 2 mps 759 mmHg 38%
    06:00 -5°C° 0 mm 2 mps 759 mmHg 39%
    07:00 -4°C° 0 mm 2 mps 759 mmHg 39%
    08:00 -4°C° 0 mm 2 mps 759 mmHg 40%
    09:00 -4°C° 0 mm 2 mps 758 mmHg 40%
    10:00 -3°C° 0 mm 2 mps 758 mmHg 40%
    11:00 -2°C° 0 mm 3 mps 758 mmHg 39%
    12:00 -1°C° 0 mm 3 mps 758 mmHg 38%
    13:00 -1°C° 0 mm 3 mps 757 mmHg 40%
    14:00 -1°C° 0 mm 3 mps 757 mmHg 43%
    15:00 -1°C° 0 mm 3 mps 756 mmHg 45%
    16:00 -2°C° 0 mm 3 mps 756 mmHg 51%
    17:00 -2°C° 0 mm 3 mps 756 mmHg 56%
    18:00 -4°C° 0 mm 3 mps 756 mmHg 62%
    19:00 -4°C° 0 mm 3 mps 755 mmHg 65%
    20:00 -4°C° 0 mm 3 mps 755 mmHg 68%
    21:00 -4°C° 0 mm 3 mps 755 mmHg 71%
    22:00 -4°C° 0 mm 3 mps 755 mmHg 73%
    23:00 -4°C° 0 mm 3 mps 754 mmHg 74%
    Show more